• In Uzbekistan
  • List of Countries
  • For 7 days
  • Water Temperature
  • Satellite Maps
  • Weather Map
  • Weather Widgets
  • user-avatar
    Login

    Hourly Weather La Massana

    Today, 27 June, Tuesday

    Time Temperature Precipitation Wind Pressure Humidity
    00:00 +7°C° 0 mm 0 mps 608 mmHg 86%
    01:00 +8°C° 0 mm 1 mps 608 mmHg 85%
    02:00 +8°C° 0 mm 1 mps 608 mmHg 84%
    03:00 +8°C° 0 mm 1 mps 608 mmHg 83%
    04:00 +10°C° 0 mm 1 mps 608 mmHg 78%
    05:00 +11°C° 0 mm 1 mps 609 mmHg 74%
    06:00 +13°C° 0 mm 1 mps 610 mmHg 70%
    07:00 +15°C° 0 mm 2 mps 611 mmHg 61%
    08:00 +17°C° 0 mm 2 mps 611 mmHg 52%
    09:00 +19°C° 0 mm 3 mps 612 mmHg 43%
    10:00 +21°C° 0 mm 3 mps 612 mmHg 39%
    11:00 +22°C° 0 mm 4 mps 612 mmHg 36%
    12:00 +23°C° 0 mm 4 mps 612 mmHg 32%
    13:00 +22°C° 0.2 mm 4 mps 612 mmHg 37%
    14:00 +21°C° 0.2 mm 5 mps 611 mmHg 43%
    15:00 +21°C° 0.2 mm 5 mps 610 mmHg 49%
    16:00 +19°C° 0.6 mm 4 mps 609 mmHg 53%
    17:00 +18°C° 0.6 mm 3 mps 609 mmHg 58%
    18:00 +17°C° 0.6 mm 3 mps 608 mmHg 63%
    19:00 +15°C° 0.5 mm 2 mps 607 mmHg 67%
    20:00 +13°C° 0.5 mm 2 mps 607 mmHg 71%
    21:00 +10°C° 0.5 mm 2 mps 606 mmHg 76%
    22:00 +9°C° 0.3 mm 2 mps 606 mmHg 78%
    23:00 +8°C° 0.3 mm 2 mps 606 mmHg 81%

    Tomorrow, 28 June, Wednesday

    Time Temperature Precipitation Wind Pressure Humidity
    00:00 +8°C° 0.3 mm 1 mps 606 mmHg 84%
    01:00 +8°C° 0 mm 1 mps 606 mmHg 86%
    02:00 +8°C° 0 mm 1 mps 605 mmHg 87%
    03:00 +7°C° 0 mm 1 mps 605 mmHg 89%
    04:00 +8°C° 0 mm 1 mps 605 mmHg 85%
    05:00 +9°C° 0 mm 1 mps 606 mmHg 82%
    06:00 +10°C° 0 mm 1 mps 606 mmHg 78%
    07:00 +10°C° 0.2 mm 2 mps 607 mmHg 74%
    08:00 +11°C° 0.2 mm 3 mps 607 mmHg 70%
    09:00 +12°C° 0.2 mm 3 mps 607 mmHg 66%
    10:00 +12°C° 0.4 mm 3 mps 607 mmHg 64%
    11:00 +13°C° 0.4 mm 4 mps 607 mmHg 61%
    12:00 +14°C° 0.4 mm 4 mps 607 mmHg 58%
    13:00 +14°C° 0.6 mm 4 mps 607 mmHg 58%
    14:00 +14°C° 0.6 mm 4 mps 607 mmHg 58%
    15:00 +14°C° 0.6 mm 4 mps 607 mmHg 58%
    16:00 +13°C° 0.9 mm 4 mps 606 mmHg 62%
    17:00 +12°C° 0.9 mm 3 mps 606 mmHg 65%
    18:00 +11°C° 0.9 mm 3 mps 606 mmHg 68%
    19:00 +9°C° 0.5 mm 3 mps 606 mmHg 73%
    20:00 +8°C° 0.5 mm 2 mps 605 mmHg 77%
    21:00 +7°C° 0.5 mm 2 mps 605 mmHg 82%
    22:00 +6°C° 0.1 mm 2 mps 605 mmHg 84%
    23:00 +5°C° 0.1 mm 2 mps 605 mmHg 86%

    Day after tomorrow, 29 June, Thursday

    Time Temperature Precipitation Wind Pressure Humidity
    00:00 +5°C° 0.1 mm 2 mps 605 mmHg 88%
    01:00 +4°C° 0 mm 2 mps 605 mmHg 89%
    02:00 +4°C° 0 mm 2 mps 605 mmHg 90%
    03:00 +4°C° 0 mm 1 mps 604 mmHg 91%
    04:00 +5°C° 0 mm 1 mps 605 mmHg 88%
    05:00 +6°C° 0 mm 1 mps 606 mmHg 85%
    06:00 +6°C° 0 mm 1 mps 606 mmHg 82%
    07:00 +7°C° 0 mm 2 mps 607 mmHg 74%
    08:00 +9°C° 0 mm 2 mps 608 mmHg 65%
    09:00 +10°C° 0 mm 2 mps 609 mmHg 57%
    10:00 +12°C° 0.1 mm 2 mps 609 mmHg 55%
    11:00 +11°C° 0.1 mm 3 mps 609 mmHg 53%
    12:00 +12°C° 0.1 mm 3 mps 609 mmHg 50%
    13:00 +12°C° 0.3 mm 4 mps 609 mmHg 49%
    14:00 +12°C° 0.3 mm 4 mps 609 mmHg 48%
    15:00 +12°C° 0.3 mm 4 mps 609 mmHg 47%
    16:00 +11°C° 0.3 mm 4 mps 609 mmHg 51%
    17:00 +11°C° 0.3 mm 3 mps 609 mmHg 55%
    18:00 +10°C° 0.3 mm 2 mps 608 mmHg 58%
    19:00 +7°C° 0.1 mm 2 mps 608 mmHg 67%
    20:00 +6°C° 0.1 mm 1 mps 607 mmHg 75%
    21:00 +4°C° 0.1 mm 1 mps 607 mmHg 84%
    22:00 +3°C° 0 mm 1 mps 607 mmHg 84%
    23:00 +3°C° 0 mm 1 mps 607 mmHg 84%

    30 June, Friday

    Time Temperature Precipitation Wind Pressure Humidity
    00:00 +3°C° 0 mm 1 mps 606 mmHg 84%
    01:00 +2°C° 0 mm 1 mps 606 mmHg 84%
    02:00 +2°C° 0 mm 1 mps 606 mmHg 83%
    03:00 +1°C° 0 mm 1 mps 606 mmHg 83%
    04:00 +3°C° 0 mm 1 mps 606 mmHg 77%
    05:00 +4°C° 0 mm 1 mps 607 mmHg 71%
    06:00 +6°C° 0 mm 1 mps 608 mmHg 65%
    07:00 +7°C° 0 mm 2 mps 609 mmHg 57%
    08:00 +9°C° 0 mm 3 mps 610 mmHg 49%
    09:00 +11°C° 0 mm 3 mps 611 mmHg 41%
    10:00 +12°C° 0 mm 4 mps 611 mmHg 38%
    11:00 +13°C° 0 mm 4 mps 612 mmHg 34%
    12:00 +14°C° 0 mm 4 mps 612 mmHg 31%
    13:00 +14°C° 0.1 mm 4 mps 612 mmHg 34%
    14:00 +14°C° 0.1 mm 3 mps 612 mmHg 38%
    15:00 +13°C° 0.1 mm 3 mps 612 mmHg 42%
    16:00 +13°C° 0.1 mm 2 mps 611 mmHg 49%
    17:00 +12°C° 0.1 mm 2 mps 611 mmHg 56%
    18:00 +10°C° 0.1 mm 2 mps 611 mmHg 62%
    19:00 +8°C° 0.1 mm 2 mps 610 mmHg 70%
    20:00 +7°C° 0.1 mm 2 mps 610 mmHg 78%
    21:00 +5°C° 0.1 mm 2 mps 610 mmHg 86%
    22:00 +5°C° 0.1 mm 2 mps 610 mmHg 86%
    23:00 +4°C° 0.1 mm 2 mps 610 mmHg 85%

    1 July, Saturday

    Time Temperature Precipitation Wind Pressure Humidity
    00:00 +4°C° 0.1 mm 2 mps 610 mmHg 85%
    01:00 +4°C° 0 mm 2 mps 610 mmHg 86%
    02:00 +4°C° 0 mm 2 mps 610 mmHg 87%
    03:00 +3°C° 0 mm 2 mps 610 mmHg 88%
    04:00 +4°C° 0 mm 2 mps 610 mmHg 86%
    05:00 +5°C° 0 mm 2 mps 611 mmHg 83%
    06:00 +6°C° 0 mm 2 mps 612 mmHg 80%
    07:00 +7°C° 0 mm 3 mps 613 mmHg 74%
    08:00 +8°C° 0 mm 3 mps 614 mmHg 68%
    09:00 +10°C° 0 mm 3 mps 614 mmHg 62%
    10:00 +11°C° 0.1 mm 3 mps 615 mmHg 58%
    11:00 +11°C° 0.1 mm 3 mps 615 mmHg 55%
    12:00 +12°C° 0.1 mm 4 mps 616 mmHg 51%
    13:00 +13°C° 0.1 mm 4 mps 616 mmHg 50%
    14:00 +13°C° 0.1 mm 4 mps 616 mmHg 50%
    15:00 +13°C° 0.1 mm 4 mps 616 mmHg 49%
    16:00 +12°C° 0.1 mm 4 mps 616 mmHg 54%
    17:00 +11°C° 0.1 mm 3 mps 616 mmHg 58%
    18:00 +10°C° 0.1 mm 3 mps 616 mmHg 63%
    19:00 +8°C° 0 mm 3 mps 615 mmHg 70%
    20:00 +5°C° 0 mm 3 mps 615 mmHg 78%
    21:00 +4°C° 0 mm 3 mps 615 mmHg 85%
    22:00 +3°C° 0 mm 3 mps 615 mmHg 86%
    23:00 +3°C° 0 mm 3 mps 615 mmHg 86%

    2 July, Sunday

    Time Temperature Precipitation Wind Pressure Humidity
    00:00 +3°C° 0 mm 3 mps 615 mmHg 86%
    01:00 +2°C° 0 mm 3 mps 614 mmHg 86%
    02:00 +2°C° 0 mm 3 mps 614 mmHg 85%
    03:00 +2°C° 0 mm 3 mps 614 mmHg 85%
    04:00 +3°C° 0 mm 3 mps 615 mmHg 78%
    05:00 +4°C° 0 mm 3 mps 615 mmHg 71%
    06:00 +4°C° 0 mm 3 mps 616 mmHg 65%
    07:00 +8°C° 0 mm 3 mps 617 mmHg 58%
    08:00 +10°C° 0 mm 3 mps 618 mmHg 51%
    09:00 +13°C° 0 mm 3 mps 619 mmHg 45%
    10:00 +14°C° 0 mm 3 mps 619 mmHg 42%
    11:00 +17°C° 0 mm 3 mps 620 mmHg 40%
    12:00 +18°C° 0 mm 3 mps 620 mmHg 38%
    13:00 +18°C° 0 mm 3 mps 620 mmHg 39%
    14:00 +19°C° 0 mm 3 mps 620 mmHg 40%
    15:00 +19°C° 0 mm 3 mps 620 mmHg 41%
    16:00 +18°C° 0 mm 3 mps 619 mmHg 46%
    17:00 +17°C° 0 mm 3 mps 619 mmHg 52%
    18:00 +16°C° 0 mm 3 mps 618 mmHg 58%
    19:00 +14°C° 0 mm 2 mps 618 mmHg 68%
    20:00 +10°C° 0 mm 2 mps 617 mmHg 79%
    21:00 +8°C° 0 mm 2 mps 616 mmHg 89%
    22:00 +7°C° 0 mm 2 mps 616 mmHg 89%
    23:00 +7°C° 0 mm 2 mps 616 mmHg 89%
    Show more